Weather History for Flag Island, MN

Change the Weather History Date:

Wednesday, June 19, 2013

  Actual Average Record
Temperature  
Mean Temperature 70 °F -  
Max Temperature 78 °F 65 °F 84 °F (2005)
Min Temperature 62 °F 53 °F 46 °F (2001)
Cooling Degree Days 5    
Growing Degree Days 20 (Base 50)    
Moisture  
Dew Point 55 °F    
Average Humidity 61    
Maximum Humidity 78    
Minimum Humidity 39    
Precipitation  
Precipitation 0.00 in - - ()
Sea Level Pressure  
Sea Level Pressure 29.93 in    
Wind  
Wind Speed 6 mph (SSE)    
Max Wind Speed 10 mph    
Max Gust Speed -    
Visibility 3 miles    
Events      
Averages and records for this station are not official NWS values.
T = Trace of Precipitation, MM = Missing Value Source: NWS Daily Summary

Daily Weather History Graph

Daily Weather History Graph

Search for Another Location

Airport:

Trip Planner

Search our weather history database for the weather conditions in past years. The results will help you decide how hot, cold, wet, or windy it might be!

Date:

Astronomy

Jun. 19, 2013 Rise Set
Actual Time 5:13 AM CDT 9:28 PM CDT
Civil Twilight 4:29 AM CDT 10:12 PM CDT
Nautical Twilight 3:27 AM CDT 11:14 PM CDT
Astronomical Twilight 1:53 AM CDT 12:48 AM CDT
Moon 5:07 PM CDT (6/19) 2:17 AM CDT (6/19)
Length of Visible Light 17h 42m
Length of Day
16h 15m
Waxing Gibbous, 80% of the Moon is Illuminated
Jun 19
Waxing Gibbous
Jun 23
Full
Jun 29
Last Quarter
Jul 8
New
Jul 15
First Quarter

Hourly Weather History & Observations

Time (CDT) Temp. Dew Point Humidity Pressure Visibility Wind Dir Wind Speed Gust Speed Precip Events Conditions
12:13 AM 68.0 °F 48.2 °F 49% 29.96 in 3.0 mi SSW 6.9 mph - N/A   Haze
12:34 AM 66.2 °F 50.0 °F 56% 29.96 in 3.0 mi South 6.9 mph - N/A   Haze
12:53 AM 66.2 °F 51.8 °F 60% 29.96 in 3.0 mi SSW 5.8 mph - N/A   Haze
1:07 AM 66.2 °F 51.8 °F 60% 29.96 in 3.0 mi South 6.9 mph - N/A   Haze
1:21 AM 66.2 °F 51.8 °F 60% 29.95 in 3.0 mi SSW 5.8 mph - N/A   Mostly Cloudy
1:42 AM 66.2 °F 51.8 °F 60% 29.95 in 3.0 mi SSW 8.1 mph - N/A   Haze
1:54 AM 66.2 °F 51.8 °F 60% 29.94 in 2.5 mi South 6.9 mph - N/A   Haze
2:13 AM 66.2 °F 50.0 °F 56% 29.95 in 3.0 mi South 6.9 mph - N/A   Haze
2:33 AM 66.2 °F 51.8 °F 60% 29.95 in 3.0 mi South 5.8 mph - N/A   Haze
2:54 AM 64.4 °F 51.8 °F 64% 29.95 in 2.5 mi SSW 9.2 mph - N/A   Haze
3:13 AM 66.2 °F 51.8 °F 60% 29.95 in 2.5 mi South 6.9 mph - N/A   Haze
3:33 AM 64.4 °F 51.8 °F 64% 29.94 in 3.0 mi South 6.9 mph - N/A   Haze
3:54 AM 64.4 °F 51.8 °F 64% 29.94 in 2.5 mi SSW 5.8 mph - N/A   Haze
4:13 AM 62.6 °F 51.8 °F 68% 29.94 in 2.5 mi SSW 5.8 mph - N/A   Haze
4:33 AM 62.6 °F 51.8 °F 68% 29.94 in 2.5 mi SSW 3.5 mph - N/A   Haze
4:54 AM 62.6 °F 51.8 °F 68% 29.94 in 3.0 mi South 5.8 mph - N/A   Haze
5:13 AM 62.6 °F 51.8 °F 68% 29.94 in 2.0 mi South 4.6 mph - N/A   Haze
5:33 AM 62.6 °F 51.8 °F 68% 29.94 in 1.8 mi Calm Calm - N/A   Haze
5:54 AM 62.6 °F 51.8 °F 68% 29.94 in 1.8 mi SSW 3.5 mph - N/A   Haze
6:13 AM 62.6 °F 51.8 °F 68% 29.95 in 1.8 mi SSW 5.8 mph - N/A   Haze
6:33 AM 62.6 °F 51.8 °F 68% 29.95 in 1.5 mi Calm Calm - N/A   Haze
6:54 AM 62.6 °F 51.8 °F 68% 29.95 in 1.2 mi SSW 3.5 mph - N/A   Haze
7:13 AM 62.6 °F 53.6 °F 72% 29.95 in 1.5 mi SSW 5.8 mph - N/A   Haze
7:33 AM 64.4 °F 53.6 °F 68% 29.95 in 1.2 mi SW 8.1 mph - N/A   Haze
7:54 AM 64.4 °F 53.6 °F 68% 29.94 in 1.2 mi SSW 10.4 mph - N/A   Haze
8:13 AM 64.4 °F 53.6 °F 68% 29.94 in 1.0 mi Calm Calm - N/A   Haze
8:33 AM 66.2 °F 53.6 °F 64% 29.95 in 2.0 mi South 4.6 mph - N/A   Haze
8:53 AM 66.2 °F 53.6 °F 64% 29.95 in 1.2 mi SSW 4.6 mph - N/A   Haze
9:04 AM 66.2 °F 53.6 °F 64% 29.95 in 1.2 mi SSE 3.5 mph - N/A   Haze
9:36 AM 68.0 °F 55.4 °F 64% 29.94 in 1.2 mi SE 4.6 mph - N/A   Haze
9:54 AM 66.2 °F 57.2 °F 73% 29.94 in 2.0 mi SSE 8.1 mph - N/A   Haze
10:13 AM 66.2 °F 57.2 °F 73% 29.94 in 2.0 mi SSE 8.1 mph - N/A   Haze
10:33 AM 66.2 °F 57.2 °F 73% 29.94 in 3.0 mi SSE 8.1 mph - N/A   Haze
10:54 AM 66.2 °F 57.2 °F 73% 29.94 in 3.0 mi SSE 9.2 mph - N/A   Haze
11:13 AM 66.2 °F 57.2 °F 73% 29.94 in 3.0 mi SSE 8.1 mph - N/A   Haze
11:34 AM 68.0 °F 57.2 °F 68% 29.93 in 3.0 mi SSE 8.1 mph - N/A   Haze
11:53 AM 68.0 °F 57.2 °F 68% 29.93 in 4.0 mi SSE 8.1 mph - N/A   Haze
12:13 PM 69.8 °F 57.2 °F 64% 29.93 in 3.0 mi SSE 6.9 mph - N/A   Haze
12:33 PM 69.8 °F 57.2 °F 64% 29.92 in 3.0 mi SE 9.2 mph - N/A   Haze
12:53 PM 69.8 °F 57.2 °F 64% 29.92 in 4.0 mi SSE 8.1 mph - N/A   Haze
1:14 PM 69.8 °F 60.8 °F 73% 29.92 in 4.0 mi SSE 6.9 mph - N/A   Haze
1:33 PM 69.8 °F 60.8 °F 73% 29.91 in 4.0 mi SSE 8.1 mph - N/A   Haze
1:53 PM 71.6 °F 60.8 °F 69% 29.91 in 4.0 mi SSE 6.9 mph - N/A   Haze
2:14 PM 71.6 °F 59.0 °F 64% 29.91 in 3.0 mi SSE 5.8 mph - N/A   Haze
2:33 PM 71.6 °F 59.0 °F 64% 29.91 in 4.0 mi SSE 5.8 mph - N/A   Haze
2:53 PM 71.6 °F 59.0 °F 64% 29.90 in 4.0 mi SSE 8.1 mph - N/A   Haze
3:14 PM 71.6 °F 60.8 °F 69% 29.90 in 3.0 mi South 4.6 mph - N/A   Haze
3:33 PM 73.4 °F 57.2 °F 57% 29.91 in 3.0 mi SSE 5.8 mph - N/A   Haze
3:53 PM 75.2 °F 53.6 °F 47% 29.91 in 3.0 mi SE 4.6 mph - N/A   Haze
4:14 PM 75.2 °F 53.6 °F 47% 29.90 in 3.0 mi SSE 5.8 mph - N/A   Haze
4:33 PM 75.2 °F 55.4 °F 50% 29.89 in 3.0 mi SE 3.5 mph - N/A   Haze
4:53 PM 77.0 °F 53.6 °F 44% 29.89 in 4.0 mi SSE 4.6 mph - N/A   Haze
5:14 PM 77.0 °F 55.4 °F 47% 29.89 in 3.0 mi SE 4.6 mph - N/A   Haze
5:33 PM 77.0 °F 53.6 °F 44% 29.88 in 3.0 mi SE 3.5 mph - N/A   Haze
5:53 PM 78.8 °F 55.4 °F 44% 29.88 in 3.0 mi Calm Calm - N/A   Haze
6:14 PM 78.8 °F 53.6 °F 42% 29.88 in 3.0 mi ESE 3.5 mph - N/A   Haze
6:33 PM 78.8 °F 53.6 °F 42% 29.88 in 3.0 mi Calm Calm - N/A   Haze
6:53 PM 77.0 °F 55.4 °F 47% 29.89 in 3.0 mi Calm Calm - N/A   Haze
7:14 PM 78.8 °F 53.6 °F 42% 29.89 in 3.0 mi NE 3.5 mph - N/A   Haze
7:33 PM 78.8 °F 57.2 °F 47% 29.90 in 3.0 mi NNE 5.8 mph - N/A   Haze
7:53 PM 78.8 °F 55.4 °F 44% 29.90 in 3.0 mi NNE 3.5 mph - N/A   Haze
8:14 PM 78.8 °F 51.8 °F 39% 29.90 in 4.0 mi NNE 5.8 mph - N/A   Haze
8:33 PM 75.2 °F 55.4 °F 50% 29.90 in 4.0 mi North 4.6 mph - N/A   Haze
8:53 PM 75.2 °F 57.2 °F 53% 29.90 in 4.0 mi Calm Calm - N/A   Haze
9:14 PM 75.2 °F 55.4 °F 50% 29.90 in 3.0 mi Calm Calm - N/A   Haze
9:33 PM 73.4 °F 57.2 °F 57% 29.91 in 2.0 mi Calm Calm - N/A   Haze
9:54 PM 73.4 °F 55.4 °F 53% 29.92 in 2.0 mi Calm Calm - N/A   Haze
10:13 PM 69.8 °F 62.6 °F 78% 29.93 in 4.0 mi Calm Calm - N/A   Haze
10:33 PM 69.8 °F 62.6 °F 78% 29.94 in 4.0 mi Calm Calm - N/A   Haze
10:54 PM 69.8 °F 62.6 °F 78% 29.94 in 3.0 mi Calm Calm - N/A   Haze
11:13 PM 69.8 °F 62.6 °F 78% 29.94 in 1.8 mi Calm Calm - N/A   Haze
11:33 PM 69.8 °F 59.0 °F 68% 29.95 in 3.0 mi Calm Calm - N/A   Haze
11:54 PM 69.8 °F 57.2 °F 64% 29.94 in 5.0 mi ENE 3.5 mph - N/A   Haze